{"data":{"norad_id":55404,"epoch":"2026-09-20T20:03:59.864256Z","epoch_age_seconds":67549,"freshness":"FRESH","line1":"1 55404U 23014P   26263.83610954  .00000387  00000+0  40279-4 0  9996","line2":"2 55404  69.9973 292.5365 0003718 267.5043  92.5690 14.98326782201285","mean_motion":14.98326782,"eccentricity":0.0003718,"inclination_deg":69.9973,"raan_deg":292.5365,"arg_perigee_deg":267.5043,"mean_anomaly_deg":92.569,"bstar":4.0279e-5,"rev_number":20128,"period_min":96.10720553749,"perigee_km":569.48175694498,"apogee_km":574.64992777856,"semimajor_km":6950.2028423618,"source":"CELESTRAK","updated_at":"2026-09-21T09:00:33.216058Z"}}